Location: Kouchibouguac National Park
(46.8081°N, 64.9088°W)
Time: 22:55:19
(UTC-04:00)

Daily predictions for brighter satellites

Satellite Brightness Start Highest point End
(mag) Time Altitude Azimuth Time Altitude Azimuth Time Altitude Azimuth
Cosmos 2219 Rocket 2.2 17:32:14 10° SSW 17:37:53 83° ESE 17:43:32 10° NNE
Cosmos 44 3.6 17:33:54 10° SSW 17:39:04 61° ESE 17:44:00 10° NE
Cosmos 1626 4.0 17:39:15 10° ESE 17:41:02 13° E 17:42:50 10° NE
Lacrosse 5 rocket 1.9 17:38:46 10° WNW 17:42:26 56° SW 17:46:17 10° SE
CZ-2C R/B 2.5 17:37:44 10° SSE 17:42:40 86° WSW 17:47:28 10° NNW
Tsikada Rocket 4.5 17:37:22 10° SSW 17:43:44 70° W 17:50:11 10° N
CENTAUR R/B 3.1 17:38:05 10° WSW 17:44:14 59° NW 17:51:17 10° NE
Cosmos 2333 Rocket 2.2 17:38:49 10° SSW 17:44:25 74° ESE 17:50:06 10° NNE
Cosmos 2322 Rocket 4.5 17:43:14 10° WNW 17:46:27 15° NW 17:49:40 10° N
ALOS 4.0 17:46:17 10° E 17:48:21 13° ENE 17:50:25 10° NNE
Cosmos 2278 Rocket 2.5 17:43:51 10° NNW 17:49:33 78° WSW 17:55:12 10° SSE
MSX 3.8 17:45:47 10° SSE 17:51:30 80° ENE 17:57:15 10° NNW
COSMOS 2441 4.3 17:47:08 10° SSE 17:51:57 68° ENE 17:56:45 10° N
Cosmos 1726 2.1 17:48:22 10° N 17:52:10 82° E 17:55:57 10° S
MOS 1 4.4 17:46:53 10° SSE 17:52:33 85° WSW 17:58:16 10° NNW
Timation 1 Rocket 4.3 17:48:28 10° NNW 17:54:30 69° ENE 18:00:30 10° SE
Cosmos 1634 Rocket 4.1 17:49:56 10° N 17:56:10 86° W 18:02:20 10° S
Cosmos 1328 3.7 17:52:57 10° S 17:56:54 80° E 18:00:51 10° NNE
Cosmos 1674 4.3 17:55:03 10° SW 17:58:38 38° WNW 18:02:17 10° N
Cosmos 1455 3.3 17:56:11 10° NNE 17:59:15 22° ENE 18:02:18 10° SE
Cosmos 1125 Rocket 4.3 17:57:05 10° NNW 18:02:11 56° WSW 18:07:15 10° S
SMAP 3.7 17:59:24 10° S 18:03:59 61° WSW 18:08:38 10° NNW
Cosmos 371 Rocket 3.7 18:00:44 10° SSW 18:05:30 64° WNW 18:10:18 10° NNE
Abrixas 2.6 18:06:33 10° WSW 18:09:26 58° SSE 18:11:29 17° E
USA 116 3.6 18:06:20 10° N 18:09:28 61° WNW 18:12:31 10° SSW
BREEZE M DEB (TANK) 2.1 18:06:41 10° WNW 18:09:51 53° SSW 18:11:55 10° SE
Cosmos 1703 3.8 18:07:18 10° SSE 18:10:53 36° E 18:14:30 10° NNE
Cosmos 1242 Rocket 4.3 18:09:07 10° NNE 18:10:30 14° NE 18:10:30 14° NE
CZ-4 R/B 3.1 18:09:35 10° SSW 18:13:11 35° W 18:16:49 10° NNW
Cosmos 1184 Rocket 4.2 18:11:58 10° SE 18:14:27 20° E 18:15:19 18° ENE
Cosmos 1707 Rocket 3.7 18:10:58 10° N 18:15:10 46° ENE 18:19:20 10° SSE
Iridium 4 Rocket 4.4 18:12:13 10° ESE 18:15:10 18° E 18:17:14 13° NE
SJ-6B 3.7 18:11:39 10° SE 18:15:13 30° ENE 18:18:51 10° N
Cosmos 2237 Rocket 2.3 18:10:23 10° SSW 18:16:01 83° WNW 18:21:43 10° NNE
Cosmos 2369 Rocket 3.5 18:12:34 10° N 18:16:44 20° NE 18:19:08 16° ENE
COSMO-SKYMED 1 2.7 18:13:14 10° NNE 18:17:31 54° E 18:21:46 10° S
YAOGAN 1 3.7 18:14:38 10° S 18:18:49 48° W 18:23:02 10° NNW
Cosmos 2151 3.1 18:14:52 10° SSW 18:19:03 78° W 18:23:17 10° N
Cosmos 1300 3.8 18:15:38 10° NNW 18:19:21 48° W 18:23:02 10° S
Thor Agena Rocket 3.7 18:14:25 10° NNE 18:19:42 80° WNW 18:24:51 10° SSW
Meteor 1-27 4.4 18:14:12 10° NNW 18:20:03 85° W 18:25:54 10° S
BREEZE-M DEB (TANK) 3.3 18:19:02 10° SSW 18:21:04 25° SE 18:22:05 19° ESE
Meteor 2-10 4.2 18:19:06 10° NNW 18:24:13 77° W 18:29:27 10° S
SL-16 R/B 2.3 18:18:59 10° S 18:24:27 54° ESE 18:29:58 10° NE
COSMOS 2428 4.4 18:21:50 10° WSW 18:26:48 29° NW 18:31:46 10° N
Cosmos 1538 Rocket 4.3 18:22:04 10° S 18:27:08 47° ESE 18:32:16 10° NNE
Cosmos 1666 Rocket 3.9 18:24:36 10° SSE 18:28:41 42° E 18:32:51 10° NNE
Cosmos 44 Rocket 4.4 18:23:55 10° WSW 18:28:45 41° NW 18:33:30 10° NNE
CZ-3A R/B 2.7 18:25:18 10° NW 18:30:35 84° NNE 18:35:59 10° ESE
Cosmos 2297 4.0 18:28:51 10° NNW 18:34:33 72° WSW 18:40:14 10° SSE
CZ-4C R/B 4.0 18:30:05 10° NNW 18:35:06 22° NNE 18:38:15 17° NE
FREGAT/IRIS 3.0 18:33:53 10° SE 18:36:46 39° ENE 18:39:39 10° N
SL-14 R/B 4.4 18:33:30 10° SSW 18:37:19 46° WNW 18:41:13 10° N
Resurs 01 Rocket 2.4 18:34:43 10° SE 18:38:35 30° ENE 18:42:28 10° N
Cosmos 1484 Rocket 3.8 18:34:58 10° S 18:38:49 49° W 18:42:44 10° NNW
Cosmos 304 Rocket 3.7 18:34:41 10° SSW 18:39:30 87° ESE 18:44:21 10° NNE
Cosmos 1340 Rocket 3.0 18:37:14 10° SSW 18:41:10 71° WNW 18:45:05 10° N
Cosmos 2279 Rocket 4.4 18:36:19 10° NNW 18:42:29 66° W 18:48:38 10° S
Meteor 1-28 Rocket 3.0 18:40:07 10° NNE 18:43:50 75° ESE 18:47:33 10° S
Lacrosse 4 Rocket 1.2 18:41:33 10° NNW 18:45:36 65° ENE 18:48:48 16° SE
FENGYUN 3A 3.9 18:46:04 10° SE 18:51:08 46° ENE 18:56:16 10° N
METEOR-M 4.0 18:46:11 10° SSE 18:51:32 81° ENE 18:56:55 10° NNW
Cosmos 1869 3.3 18:49:08 10° N 18:53:08 57° ENE 18:57:07 10° SSE
ATLAS 3B R/B 4.1 18:50:52 10° NW 18:56:05 21° N 18:58:38 17° NE
Aureole 2 Rocket 4.2 18:53:07 10° SW 18:56:45 37° WNW 19:00:40 10° N
Blok-2BL 3.5 18:55:54 10° NNW 18:58:52 50° NNE 18:58:52 50° NNE
USA 215 3.2 18:53:29 14° ESE 18:59:13 87° NNE 19:05:48 10° NW
NOAA 12 4.2 18:55:06 10° SSE 19:00:21 80° WSW 19:05:40 10° NNW
Cosmos 1470 Rocket 4.2 18:57:43 10° SSE 19:00:58 35° ESE 19:00:58 35° ESE
Cosmos 773 Rocket 3.9 18:56:48 10° S 19:01:54 62° ESE 19:04:53 25° NE
Nadezhda 4 Rocket 3.9 18:58:44 10° S 19:05:01 85° E 19:11:23 10° N
ATLAS 5 CENTAUR R/B 3.3 19:00:08 10° NNW 19:05:02 28° NNE 19:05:48 27° NE
SKYMED 2 4.5 19:01:23 10° N 19:05:35 48° WNW 19:09:46 10° SW
Cosmos 2242 Rocket 3.4 19:01:56 10° N 19:06:22 83° E 19:10:50 10° S
Cosmos 1805 Rocket 4.3 19:02:32 10° SSW 19:06:54 55° WNW 19:11:18 10° N
Lacrosse 5 3.0 19:02:45 10° NW 19:07:07 27° N 19:08:06 26° NNE
Cosmos 2026 Rocket 4.3 19:03:13 10° SSE 19:08:53 39° E 19:11:08 29° NE
Cosmos 1461 3.3 19:06:25 10° SW 19:10:30 57° NW 19:12:04 33° NNE
Cosmos 1626 3.1 19:12:21 10° SSW 19:15:59 48° WNW 19:19:24 11° N
Aureole 1 Rocket 3.9 19:12:48 10° SSW 19:18:30 81° ESE 19:26:00 10° NNE
Sich 1 3.6 19:15:32 10° SSW 19:19:55 61° W 19:24:20 10° N
Cosmos 1943 Rocket 3.4 19:17:47 10° N 19:21:10 25° NNE 19:21:10 25° NNE
Cosmos 2219 Rocket 4.3 19:18:21 10° W 19:22:33 21° NW 19:26:46 10° N
Cosmos 1356 Rocket 4.4 19:19:32 10° SSW 19:23:22 45° WNW 19:26:49 13° N
ALOS 2.1 19:20:25 10° SSE 19:25:05 89° E 19:29:48 10° NNW
Cosmos 1092 Rocket 4.0 19:21:02 10° S 19:27:23 90° E 19:33:46 10° N
Cosmos 1603 3.6 19:23:41 10° SSW 19:29:14 66° ESE 19:30:06 57° ENE
Cosmos 1553 Rocket 4.4 19:23:20 10° N 19:28:07 40° NE 19:28:07 40° NE
Cosmos 2333 Rocket 4.2 19:24:52 10° W 19:29:18 23° NW 19:33:46 10° N
Cosmos 1633 Rocket 3.8 19:25:59 10° SSW 19:30:17 53° WNW 19:34:22 11° N
FengYun 1-2 T 4.2 19:25:36 10° SSE 19:31:10 82° WSW 19:36:42 10° NNW
Cosmos 972 Rocket 4.0 19:27:14 10° NNW 19:32:26 66° ENE 19:32:57 62° E
Cosmos 1455 4.3 19:31:41 10° NNW 19:34:57 28° W 19:38:15 10° SSW
Cosmos 292 Rocket 3.8 19:31:22 10° SSW 19:35:33 66° SSE 19:35:33 66° SSE
CENTAUR R/B 4.3 19:31:06 10° WNW 19:36:31 25° NNW 19:40:21 17° NNE
USA 229 DEB 3.6 19:38:02 10° SW 19:44:55 89° SE 19:47:09 47° NE
USA 229 3.6 19:38:08 10° SW 19:45:01 89° SE 19:47:12 48° NE
Spot 2 Rocket 3.9 19:45:15 10° S 19:50:14 61° WSW 19:55:15 10° NNW
Cosmos 1862 Rocket 4.1 19:46:01 10° NNW 19:49:59 57° WNW 19:49:59 57° WNW
Cosmos 2195 Rocket 4.3 19:44:28 10° S 19:50:35 89° E 19:56:48 10° N
Iridium 4 Rocket 4.2 19:50:43 10° SSW 19:54:53 42° W 19:57:11 22° NNW
Cosmos 2237 Rocket 4.5 19:57:09 10° W 20:01:00 18° NW 20:04:53 10° N
Cosmos 2369 Rocket 2.2 19:55:50 10° NNW 20:01:00 74° NW 20:01:00 74° NW
H-2A ROCKET BODY 4.5 19:55:46 10° WSW 20:06:18 20° SSW 20:09:18 16° S
SL-16 R/B 3.9 20:03:59 10° WSW 20:08:53 29° NW 20:11:55 19° N
Resurs 01 Rocket 3.3 20:12:15 17° SSW 20:15:00 31° W 20:18:59 10° NNW
Lacrosse 4 Rocket 4.3 20:21:47 10° WNW 20:23:46 13° WSW 20:25:16 11° SW
Cosmos 1655 Rocket 4.2 20:18:02 10° SSW 20:31:26 - N 20:24:06 69° W
CZ-4C R/B 3.4 20:18:32 10° NW 20:23:28 43° N 20:23:28 43° N
ATLAS 3B R/B 4.0 20:42:09 10° NNW 20:45:53 29° NNW 20:45:53 29° NNW
ATLAS 5 CENTAUR R/B 3.8 20:44:29 10° NW 20:47:22 31° NW 20:47:22 31° NW
Lacrosse 5 4.2 20:45:55 10° NW 20:47:19 18° NW 20:47:19 18° NW
Cosmos 1943 Rocket 4.4 21:01:12 10° NW 21:02:44 19° NW 21:02:44 19° NW
